BAW9SW KSAN-EGLL

Flight info

Callsign BAW9SW
Flight time N/A
Altitude 33000
Route ZZOOO4 MTBAL DCT CADEZ/N0490F320 DCT HAKMN/N0488F330 Q73 LAKRR DCT BAWER DCT KU60Q DCT KU72S DCT KD84U DCT KU06W DCT KP18Y DCT SEGAP DCT 58N090W/N0481F350 DCT BODRA DCT BEZED DCT AYROU/M083F350 DCT EPMAN DCT 66N050W 6530N04000W/M084F370 64N030W 6130N02000W DCT GOMUP/N0482F370 DCT GINGA DCT KELLY L10 WAL UY53 NUGRA
Aircraft B77W/H-SDE1E2E3FGHIJ2J3J4J5M1RWXY/LB1D1

Departure

Time 2026-04-26 01:11
Airport San Diego International Airport (KSAN)

Arrival

Time N/A
Airport London Heathrow Airport (EGLL)
Time Latitude Longitude Altitude Speed Heading
2026-04-26 00:43 32.73336 -117.19603 29 ft 0 kts 199°
2026-04-26 00:51 32.73314 -117.19612 37 ft 0 kts 199°
2026-04-26 00:51 32.73314 -117.19611 37 ft 0 kts 198°
2026-04-26 00:52 32.73313 -117.19612 37 ft 0 kts 199°
2026-04-26 00:52 32.73416 -117.20119 28 ft 0 kts 168°
2026-04-26 01:01 32.73431 -117.20123 28 ft 4 kts 165°
2026-04-26 01:01 32.73457 -117.20131 28 ft 4 kts 169°
2026-04-26 01:01 32.73483 -117.20135 28 ft 4 kts 185°
2026-04-26 01:01 32.73510 -117.20131 29 ft 4 kts 175°
2026-04-26 01:02 32.73530 -117.20139 29 ft 4 kts 140°
2026-04-26 01:02 32.73544 -117.20163 27 ft 4 kts 102°
2026-04-26 01:02 32.73548 -117.20184 27 ft 1 kts 106°
2026-04-26 01:02 32.73548 -117.20187 28 ft 1 kts 106°
2026-04-26 01:06 32.73538 -117.20144 29 ft 18 kts 105°
2026-04-26 01:06 32.73497 -117.19969 31 ft 23 kts 105°
2026-04-26 01:06 32.73453 -117.19788 32 ft 23 kts 106°
2026-04-26 01:06 32.73409 -117.19606 31 ft 23 kts 106°
2026-04-26 01:07 32.73365 -117.19424 31 ft 23 kts 106°
2026-04-26 01:07 32.73322 -117.19244 28 ft 23 kts 106°
2026-04-26 01:07 32.73277 -117.19063 31 ft 23 kts 106°
2026-04-26 01:07 32.73232 -117.18881 32 ft 23 kts 106°
2026-04-26 01:08 32.73188 -117.18699 34 ft 23 kts 106°
2026-04-26 01:08 32.73144 -117.18518 31 ft 23 kts 106°
2026-04-26 01:08 32.73100 -117.18338 31 ft 23 kts 106°
2026-04-26 01:08 32.73056 -117.18156 28 ft 23 kts 106°
2026-04-26 01:09 32.73013 -117.17975 28 ft 23 kts 105°
2026-04-26 01:09 32.72969 -117.17796 29 ft 23 kts 106°
2026-04-26 01:09 32.72975 -117.17627 29 ft 14 kts 58°
2026-04-26 01:09 32.73007 -117.17623 29 ft 0 kts 330°
2026-04-26 01:10 32.73018 -117.17635 29 ft 10 kts 313°
2026-04-26 01:10 32.73053 -117.17731 28 ft 13 kts 288°
2026-04-26 01:10 32.73055 -117.17739 28 ft 3 kts 287°
2026-04-26 01:10 32.73128 -117.18030 28 ft 77 kts 285°
2026-04-26 01:11 32.73350 -117.18935 30 ft 149 kts 287°
2026-04-26 01:11 32.73657 -117.20312 290 ft 183 kts 284°
2026-04-26 01:11 32.74017 -117.21761 1041 ft 184 kts 286°
2026-04-26 01:11 32.74400 -117.23224 1705 ft 189 kts 284°
2026-04-26 01:12 32.74779 -117.24801 1963 ft 209 kts 283°
2026-04-26 01:12 32.75191 -117.26523 2356 ft 222 kts 284°
2026-04-26 01:12 32.75627 -117.28332 2937 ft 229 kts 284°
2026-04-26 01:12 32.76068 -117.30163 3628 ft 231 kts 284°
2026-04-26 01:13 32.76484 -117.31985 4369 ft 231 kts 278°
2026-04-26 01:13 32.76327 -117.33871 4888 ft 236 kts 245°
2026-04-26 01:13 32.75293 -117.35383 5506 ft 239 kts 215°
2026-04-26 01:13 32.73738 -117.36120 6193 ft 246 kts 188°
2026-04-26 01:14 32.72024 -117.35858 6746 ft 256 kts 157°
2026-04-26 01:14 32.70576 -117.34609 7327 ft 261 kts 137°
2026-04-26 01:14 32.69359 -117.33004 7875 ft 265 kts 134°
2026-04-26 01:14 32.68154 -117.31325 8469 ft 268 kts 135°
2026-04-26 01:15 32.66926 -117.29644 9053 ft 270 kts 136°
2026-04-26 01:15 32.65673 -117.27959 9638 ft 273 kts 137°
2026-04-26 01:15 32.64418 -117.26287 10179 ft 275 kts 137°
2026-04-26 01:15 32.63260 -117.24450 10649 ft 285 kts 117°
2026-04-26 01:16 32.62828 -117.22082 10914 ft 303 kts 99°
2026-04-26 01:16 32.62649 -117.19501 11004 ft 327 kts 100°
2026-04-26 01:16 32.62414 -117.16694 11020 ft 355 kts 101°
2026-04-26 01:16 32.62141 -117.13673 11030 ft 383 kts 100°
2026-04-26 01:17 32.61994 -117.10428 11012 ft 403 kts 88°
2026-04-26 01:17 32.62722 -117.07208 11004 ft 408 kts 68°
2026-04-26 01:17 32.63888 -117.04141 10997 ft 415 kts 68°
2026-04-26 01:17 32.64987 -117.00970 10993 ft 415 kts 70°
2026-04-26 01:18 32.66031 -116.97772 10995 ft 415 kts 71°
2026-04-26 01:18 32.66811 -116.94521 10969 ft 403 kts 87°
2026-04-26 01:18 32.66842 -116.91231 11001 ft 401 kts 96°
2026-04-26 01:18 32.66807 -116.87893 10994 ft 407 kts 93°
2026-04-26 01:19 32.66873 -116.84518 10989 ft 408 kts 92°
2026-04-26 01:19 32.66984 -116.81156 10988 ft 405 kts 88°
2026-04-26 01:19 32.67673 -116.77934 10982 ft 416 kts 65°
2026-04-26 01:19 32.69365 -116.75124 11392 ft 424 kts 44°
2026-04-26 01:20 32.71692 -116.72943 12089 ft 427 kts 27°
2026-04-26 01:20 32.74393 -116.71477 12835 ft 428 kts 18°
2026-04-26 01:20 32.77195 -116.70201 13544 ft 435 kts 17°
2026-04-26 01:20 32.80051 -116.68903 14186 ft 443 kts 17°
2026-04-26 01:21 32.82941 -116.67553 14934 ft 447 kts 18°
2026-04-26 01:21 32.85807 -116.66180 15688 ft 451 kts 18°
2026-04-26 01:21 32.88722 -116.64761 16365 ft 456 kts 18°
2026-04-26 01:21 32.91680 -116.63308 17025 ft 461 kts 18°
2026-04-26 01:22 32.94659 -116.61840 17706 ft 466 kts 18°
2026-04-26 01:22 32.97678 -116.60353 18365 ft 471 kts 18°
2026-04-26 01:22 33.00730 -116.58852 18929 ft 476 kts 17°
2026-04-26 01:22 33.03806 -116.57304 19485 ft 481 kts 18°
2026-04-26 01:23 33.06881 -116.55703 20006 ft 484 kts 19°
2026-04-26 01:23 33.09970 -116.54071 20634 ft 486 kts 19°
2026-04-26 01:23 33.13046 -116.52446 21179 ft 491 kts 19°
2026-04-26 01:23 33.16180 -116.50794 21691 ft 496 kts 19°
2026-04-26 01:24 33.19369 -116.49119 22206 ft 501 kts 19°
2026-04-26 01:24 33.22573 -116.47439 22742 ft 505 kts 19°
2026-04-26 01:24 33.25769 -116.45762 23319 ft 508 kts 19°
2026-04-26 01:24 33.29011 -116.44061 23769 ft 512 kts 20°
2026-04-26 01:25 33.32292 -116.42344 24184 ft 516 kts 20°
2026-04-26 01:25 33.35600 -116.40598 24661 ft 519 kts 20°
2026-04-26 01:25 33.38849 -116.38689 25025 ft 525 kts 30°
2026-04-26 01:25 33.41600 -116.35982 25257 ft 536 kts 49°
2026-04-26 01:26 33.43781 -116.32371 25611 ft 536 kts 57°
2026-04-26 01:26 33.45854 -116.28618 25978 ft 541 kts 57°
2026-04-26 01:26 33.47994 -116.24862 26275 ft 547 kts 56°
2026-04-26 01:26 33.50200 -116.21105 26511 ft 553 kts 54°
2026-04-26 01:27 33.52448 -116.17347 26888 ft 556 kts 54°
2026-04-26 01:27 33.54758 -116.13504 27287 ft 559 kts 54°
2026-04-26 01:27 33.56958 -116.09829 27664 ft 561 kts 54°
2026-04-26 01:27 33.59244 -116.05990 28015 ft 565 kts 54°
2026-04-26 01:28 33.61644 -116.02236 28304 ft 568 kts 47°
2026-04-26 01:28 33.64410 -115.98843 28657 ft 569 kts 41°
2026-04-26 01:28 33.67335 -115.95623 29143 ft 568 kts 41°
2026-04-26 01:28 33.70151 -115.92411 29650 ft 566 kts 42°
2026-04-26 01:29 33.72988 -115.89110 30052 ft 566 kts 43°
2026-04-26 01:29 33.75799 -115.85780 30267 ft 570 kts 43°